Location: Newark
(45.8667°N, 9.7333°E)
Time: 06:23:26
(UTC+00:00)

AO-73 - Pass Details

Date: 24 February 2020
Orbit: 581 x 664 km, 97.6° (Epoch: 07 April)

Event Time Altitude Azimuth Distance (km) Brightness Sun altitude
Rises 05:14:23 0° 17° (NNE) 3,013 ? -10.4°
Reaches altitude 10° 05:16:41 10° 22° (NNE) 2,093 ? -10.0°
Maximum altitude 05:21:10 52° 99° (E) 823 ? -9.2°
Drops below altitude 10° 05:25:33 10° 176° (S) 2,051 ? -8.4°
Sets 05:27:47 0° 181° (S) 2,946 ? -8.1°
